Orbital Elements at Epoch 2459200.5 (2020-Dec-17.0) TDB
Reference: JPL 22 (heliocentric ecliptic J2000)
Element | Value | Uncertainty (1-sigma) | Units |
e | .1876980554086801 | 3.4341e-08 | |
a | 2.645981190750049 | 1.2236e-08 | au |
q | 2.149335666598321 | 9.1637e-08 | au |
i | 3.366514500520339 | 4.0588e-06 | deg |
node | 199.8035498763556 | 6.98e-05 | deg |
peri | 186.8151343102012 | 7.0856e-05 | deg |
M | 58.45002462745962 | 1.221e-05 | deg |
tp | 2458945.252937025610 (2020-Apr-05.75293703) | 5.2709e-05 | TDB |
period | 1572.094165168434 4.30 | 1.0905e-05 2.986e-08 | d yr |
n | .2289939165071766 | 1.5884e-09 | deg/d |
Q | 3.142626714901777 | 1.4532e-08 | au |
|
| | Orbit Determination Parameters
Additional Information
|